GW5295 Weather Reports


Display with metric or nautical units.
time (UTC)temp
F
wind
direction
speed
MPH
gust
MPH
rain 1hr
in
rain 24hr
in
rain mn
in
humidity
%
barometer
mb
20260506024016 55 255 15.0 20.0 0.00 0.00 0.00 54 1015.2
20260506023520 56 245 13.0 21.0 0.00 0.00 0.00 52 1015.4
20260506023050 56 250 16.0 21.0 0.00 0.00 0.00 53 1015.2
20260506022518 56 257 15.0 19.0 0.00 0.00 0.00 52 1015.1
20260506022017 56 264 12.0 19.0 0.00 0.00 0.00 52 1015.4
20260506021559 56 224 15.0 22.0 0.00 0.00 0.00 51 1015.0
20260506021019 57 248 17.0 22.0 0.00 0.00 0.00 52 1014.9
20260506020515 57 246 14.0 20.0 0.00 0.00 0.00 53 1015.2
20260506020044 57 260 15.0 20.0 0.00 0.00 0.00 53 1015.1
20260506015514 57 260 12.0 18.0 0.00 0.00 0.00 53 1015.3
20260506015019 58 257 11.0 17.0 0.00 0.00 0.00 51 1015.3
20260506014558 58 250 13.0 19.0 0.00 0.00 0.00 50 1015.1
20260506014019 58 269 12.0 19.0 0.00 0.00 0.00 51 1015.1
20260506013517 58 274 11.0 18.0 0.00 0.00 0.00 50 1015.0
20260506013053 58 247 14.0 19.0 0.00 0.00 0.00 49 1014.7
20260506012515 59 252 14.0 19.0 0.00 0.00 0.00 50 1014.7
20260506012021 59 260 11.0 16.0 0.00 0.00 0.00 50 1014.9
20260506011603 59 209 10.0 12.0 0.00 0.00 0.00 50 1014.9
20260506011015 60 244 7.0 14.0 0.00 0.00 0.00 50 1015.0
20260506010519 59 245 9.0 18.0 0.00 0.00 0.00 52 1015.0
20260506010050 59 256 12.0 23.0 0.00 0.00 0.00 52 1014.9
20260506005515 59 260 12.0 18.0 0.00 0.00 0.00 53 1015.0
20260506005015 59 250 13.0 19.0 0.00 0.00 0.00 53 1014.9
20260506004550 60 242 13.0 19.0 0.00 0.00 0.00 53 1015.0
20260506004015 60 255 9.0 18.0 0.00 0.00 0.00 53 1015.1
20260506003516 60 260 10.0 23.0 0.00 0.00 0.00 53 1015.2
20260506003043 59 245 14.0 23.0 0.00 0.00 0.00 54 1014.9
20260506002514 60 252 15.0 21.0 0.00 0.00 0.00 53 1014.7
20260506002015 60 277 14.0 20.0 0.00 0.00 0.00 54 1014.8
20260506001546 60 269 14.0 20.0 0.00 0.00 0.00 53 1014.8
20260506001016 61 241 12.0 19.0 0.00 0.00 0.00 54 1014.9
20260506000514 62 271 11.0 16.0 0.00 0.00 0.00 52 1015.0
20260506000049 61 236 12.0 18.0 0.00 0.00 0.00 54 1014.8
20260505235515 61 246 12.0 19.0 0.00 0.00 0.00 53 1014.9
20260505235015 61 254 15.0 19.0 0.00 0.00 0.00 51 1014.8
20260505234545 62 261 9.0 16.0 0.00 0.00 0.00 50 1014.7
20260505234018 63 257 7.0 13.0 0.00 0.00 0.00 50 1014.9
20260505233516 62 240 10.0 13.0 0.00 0.00 0.00 51 1014.8
20260505233049 62 227 7.0 13.0 0.00 0.00 0.00 51 1014.8
20260505232517 62 254 6.0 16.0 0.00 0.00 0.00 51 1014.9
20260505232015 62 210 9.0 16.0 0.00 0.00 0.00 51 1014.9
20260505231601 62 222 7.0 15.0 0.00 0.00 0.00 51 1014.8
20260505231022 61 226 9.0 13.0 0.00 0.00 0.00 50 1014.7
20260505230515 61 215 9.0 14.0 0.00 0.00 0.00 50 1014.6
20260505230050 61 266 9.0 14.0 0.00 0.00 0.00 50 1014.6
20260505225516 62 259 8.0 16.0 0.00 0.00 0.00 50 1014.6
20260505225017 61 234 6.0 16.0 0.00 0.00 0.00 51 1014.9
20260505224544 62 261 6.0 18.0 0.00 0.00 0.00 51 1014.7
20260505224017 61 232 7.0 18.0 0.00 0.00 0.00 51 1015.0
20260505223521 61 244 9.0 29.0 0.00 0.00 0.00 52 1015.0
20260505223103 61 306 7.0 29.0 0.00 0.00 0.00 53 1015.1
20260505222515 61 276 16.0 22.0 0.00 0.00 0.00 52 1014.9
20260505222017 60 269 13.0 26.0 0.00 0.00 0.00 53 1014.9
20260505221553 61 267 14.0 26.0 0.00 0.00 0.00 52 1014.7
20260505221018 61 263 17.0 24.0 0.00 0.00 0.00 51 1014.6
20260505220517 61 251 17.0 26.0 0.00 0.00 0.00 51 1014.5
20260505220045 61 262 14.0 26.0 0.00 0.00 0.00 51 1014.4
20260505215518 61 265 13.0 24.0 0.00 0.00 0.00 52 1014.3
20260505215018 61 250 14.0 24.0 0.00 0.00 0.00 51 1014.6
20260505214606 61 229 13.0 26.0 0.00 0.00 0.00 52 1014.5
20260505214015 62 262 15.0 26.0 0.00 0.00 0.00 52 1014.3
20260505213518 62 261 15.0 23.0 0.00 0.00 0.00 53 1014.2
20260505213057 62 257 12.0 21.0 0.00 0.00 0.00 53 1014.3
20260505212521 62 200 15.0 23.0 0.00 0.00 0.00 54 1014.1
20260505212016 63 221 11.0 23.0 0.00 0.00 0.00 54 1014.0
20260505211556 63 255 15.0 20.0 0.00 0.00 0.00 53 1014.0
20260505211019 64 265 13.0 18.0 0.00 0.00 0.00 53 1013.9
20260505210520 63 270 11.0 18.0 0.00 0.00 0.00 52 1014.1
20260505210054 63 257 13.0 18.0 0.00 0.00 0.00 53 1013.9
20260505205517 63 254 13.0 17.0 0.00 0.00 0.00 53 1013.9
20260505205018 63 265 13.0 16.0 0.00 0.00 0.00 53 1014.1
20260505204547 63 346 4.0 11.0 0.00 0.00 0.00 56 1013.9
20260505204014 62 294 6.0 11.0 0.00 0.00 0.00 55 1014.0
20260505203518 63 300 7.0 11.0 0.00 0.00 0.00 55 1014.1
20260505203046 62 275 6.0 9.0 0.00 0.00 0.00 56 1014.0
20260505202517 63 312 6.0 10.0 0.00 0.00 0.00 55 1013.9
20260505202015 62 11 3.0 10.0 0.00 0.00 0.00 56 1013.9
20260505201554 62 346 3.0 9.0 0.00 0.00 0.00 56 1013.8
20260505201018 62 305 5.0 10.0 0.00 0.00 0.00 57 1013.7
20260505200704 61 330 5.0 10.0 0.00 0.00 0.00 58 1014.0
20260505200047 61 317 4.0 12.0 0.00 0.00 0.00 58 1014.0
20260505195515 61 322 8.0 13.0 0.00 0.00 0.00 58 1013.9
20260505195014 61 289 8.0 11.0 0.00 0.00 0.00 59 1013.8
20260505194538 60 286 7.0 14.0 0.00 0.00 0.00 59 1014.0
20260505194019 60 289 9.0 14.0 0.00 0.00 0.00 60 1013.9
20260505193518 60 290 9.0 13.0 0.00 0.00 0.00 60 1013.9
20260505193038 60 289 9.0 13.0 0.00 0.00 0.00 60 1013.9
20260505192519 60 279 10.0 13.0 0.00 0.00 0.00 60 1013.9
20260505192013 60 296 6.0 14.0 0.00 0.00 0.00 61 1013.9
20260505191543 60 292 8.0 14.0 0.00 0.00 0.00 62 1013.8
20260505191016 59 286 7.0 14.0 0.00 0.00 0.00 63 1013.8
20260505190514 59 298 8.0 12.0 0.00 0.00 0.00 64 1013.8
20260505190043 59 285 8.0 13.0 0.00 0.00 0.00 65 1013.8
20260505185516 58 280 9.0 14.0 0.00 0.00 0.00 64 1013.7
20260505185017 58 282 10.0 13.0 0.00 0.00 0.00 64 1013.6
20260505184537 59 309 9.0 13.0 0.00 0.00 0.00 63 1013.6
20260505184014 59 306 9.0 12.0 0.00 0.00 0.00 64 1013.6
20260505183516 59 295 8.0 11.0 0.00 0.00 0.00 64 1013.5
20260505183052 59 294 8.0 11.0 0.00 0.00 0.00 63 1013.5
20260505182517 60 287 8.0 11.0 0.00 0.00 0.00 61 1013.5
20260505182015 60 315 7.0 12.0 0.00 0.00 0.00 60 1013.5
20260505181539 61 306 6.0 12.0 0.00 0.00 0.00 60 1013.4
20260505181015 61 315 6.0 10.0 0.00 0.00 0.00 61 1013.4
20260505180514 60 321 3.0 11.0 0.00 0.00 0.00 62 1013.3
20260505180051 59 304 6.0 11.0 0.00 0.00 0.00 63 1013.2
20260505175513 58 277 7.0 11.0 0.00 0.00 0.00 65 1013.1
20260505175013 57 284 7.0 12.0 0.00 0.00 0.00 68 1013.2
20260505174545 56 284 8.0 11.0 0.00 0.00 0.00 72 1013.2
20260505174015 55 310 6.0 10.0 0.00 0.00 0.00 76 1013.2
20260505173519 55 294 6.0 10.0 0.00 0.00 0.00 76 1013.2
20260505173037 55 306 7.0 9.0 0.00 0.00 0.00 74 1013.1
20260505172513 56 281 5.0 9.0 0.00 0.00 0.00 74 1013.2
20260505172015 56 275 5.0 8.0 0.00 0.00 0.00 71 1013.0
20260505171548 56 271 3.0 7.0 0.00 0.00 0.00 72 1013.0
20260505171015 56 272 3.0 8.0 0.00 0.00 0.00 73 1013.1
20260505170514 56 284 6.0 8.0 0.00 0.00 0.00 72 1013.0
20260505170040 56 288 3.0 7.0 0.00 0.00 0.00 73 1013.0
20260505165514 55 275 4.0 7.0 0.00 0.00 0.00 74 1012.9
20260505165019 55 263 4.0 7.0 0.00 0.00 0.00 74 1012.9
20260505164538 55 263 4.0 6.0 0.00 0.00 0.00 73 1013.1
20260505164016 55 271 4.0 6.0 0.00 0.00 0.00 72 1013.0
20260505163515 55 275 3.0 6.0 0.00 0.00 0.00 71 1012.8
20260505163038 57 296 3.0 8.0 0.00 0.00 0.00 69 1012.7
20260505162514 58 279 5.0 8.0 0.00 0.00 0.00 65 1012.5
20260505162013 60 280 3.0 6.0 0.00 0.00 0.00 61 1012.6
20260505161537 61 65 0.0 3.0 0.00 0.00 0.00 61 1012.5
20260505161015 61 65 1.0 4.0 0.00 0.00 0.00 62 1012.8
20260505160516 60 65 2.0 4.0 0.00 0.00 0.00 63 1012.5
20260505153040 56 86 3.0 4.0 0.00 0.00 0.00 71 1012.2
20260505152515 55 71 1.0 4.0 0.00 0.00 0.00 74 1012.2
20260505152016 54 296 0.0 2.0 0.00 0.00 0.00 75 1012.4
20260505151538 53 296 0.0 2.0 0.00 0.00 0.00 76 1012.3
20260505151015 53 296 1.0 3.0 0.00 0.00 0.00 77 1012.3
20260505150525 52 296 1.0 4.0 0.00 0.00 0.00 77 1012.2
20260505140516 51 11 1.0 4.0 0.00 0.00 0.00 81 1011.7
20260505125013 57 98 1.0 4.0 0.00 0.00 0.00 57 1011.1
20260505124543 58 98 2.0 4.0 0.00 0.00 0.00 56 1010.8
20260505124017 58 98 2.0 8.0 0.00 0.00 0.00 55 1010.8
20260505123519 57 98 5.0 8.0 0.00 0.00 0.00 56 1010.8
20260505123048 56 97 4.0 7.0 0.00 0.00 0.00 60 1010.8
20260505122519 56 97 6.0 8.0 0.00 0.00 0.00 61 1010.8
20260505122015 55 103 5.0 8.0 0.00 0.00 0.00 62 1010.9
20260505121559 56 216 3.0 5.0 0.00 0.00 0.00 61 1011.0
20260505121015 55 216 2.0 3.0 0.00 0.00 0.00 63 1011.2
20260505120517 55 216 2.0 3.0 0.00 0.00 0.00 63 1011.1
20260505120056 55 216 0.0 4.0 0.00 0.00 0.00 63 1011.1
20260505115513 55 216 1.0 4.0 0.00 0.00 0.00 65 1011.1
20260505115020 55 216 3.0 4.0 0.00 0.00 0.00 63 1011.0
20260505114556 57 107 0.0 3.0 0.00 0.00 0.00 58 1011.1
20260505114015 58 107 0.0 0.0 0.00 0.00 0.00 56 1010.9
20260505113517 58 107 0.0 3.0 0.00 0.00 0.00 55 1010.9
20260505113059 58 107 1.0 3.0 0.00 0.00 0.00 55 1010.9
20260505112515 58 107 2.0 4.0 0.00 0.00 0.00 55 1011.0
20260505112432 58 107 3.0 4.0 0.00 0.00 0.00 54 1010.9
20260505111601 58 107 2.0 4.0 0.00 0.00 0.00 55 1010.9
20260505111022 58 107 2.0 3.0 0.00 0.00 0.00 56 1010.8
20260505110518 58 107 2.0 3.0 0.00 0.00 0.00 56 1010.9
20260505110112 58 107 2.0 3.0 0.00 0.00 0.00 57 1010.9
20260505102022 58 107 4.0 7.0 0.00 0.00 0.00 59 1010.9
20260505101556 58 107 5.0 7.0 0.00 0.00 0.00 60 1010.9
20260505101018 57 123 3.0 4.0 0.00 0.00 0.00 61 1010.9
20260505100520 57 123 2.0 3.0 0.00 0.00 0.00 61 1010.9
20260505100058 56 123 2.0 3.0 0.00 0.00 0.00 63 1010.8
20260505095519 55 271 1.0 4.0 0.00 0.00 0.00 65 1011.0
20260505095015 55 238 2.0 4.0 0.00 0.00 0.00 68 1011.1
20260505094926 56 272 2.0 7.0 0.00 0.00 0.00 67 1010.9
20260505094011 57 272 3.0 7.0 0.00 0.00 0.00 63 1011.1
20260505093515 60 250 3.0 5.0 0.00 0.00 0.00 55 1010.9
20260505093050 63 123 2.0 7.0 0.00 0.00 0.00 46 1010.8
20260505092518 62 103 4.0 7.0 0.00 0.00 0.00 46 1010.7
20260505092015 63 94 4.0 8.0 0.00 0.00 0.00 46 1010.6
20260505091547 63 88 5.0 8.0 0.00 0.00 0.00 46 1010.6
20260505091014 64 102 5.0 9.0 0.00 0.00 0.00 44 1010.7
20260505090512 64 119 5.0 10.0 0.00 0.00 0.00 44 1010.7
20260505090041 64 109 7.0 9.0 0.00 0.00 0.00 44 1010.5
20260505085517 64 111 6.0 9.0 0.00 0.00 0.00 44 1010.6
20260505085014 64 119 6.0 8.0 0.00 0.00 0.00 44 1010.6
20260505084541 64 111 6.0 8.0 0.00 0.00 0.00 44 1010.7
20260505084013 64 120 4.0 7.0 0.00 0.00 0.00 44 1010.6
20260505083512 64 115 4.0 6.0 0.00 0.00 0.00 43 1010.7
20260505083037 65 105 2.0 7.0 0.00 0.00 0.00 43 1010.7
20260505082516 65 105 3.0 7.0 0.00 0.00 0.00 43 1010.7
20260505082017 65 111 5.0 9.0 0.00 0.00 0.00 43 1010.7
20260505081544 65 105 5.0 9.0 0.00 0.00 0.00 43 1010.6
20260505081019 65 120 5.0 8.0 0.00 0.00 0.00 43 1010.6
20260505080514 65 128 6.0 10.0 0.00 0.00 0.00 43 1010.7
20260505080044 65 118 7.0 10.0 0.00 0.00 0.00 43 1010.7
20260505075515 65 113 6.0 10.0 0.00 0.00 0.00 43 1010.7
20260505075019 65 109 6.0 10.0 0.00 0.00 0.00 43 1010.7
20260505074539 65 115 7.0 9.0 0.00 0.00 0.00 43 1010.7
20260505074015 65 117 6.0 9.0 0.00 0.00 0.00 43 1010.7
20260505073518 65 132 6.0 9.0 0.00 0.00 0.00 43 1010.7
20260505073050 64 109 7.0 9.0 0.00 0.00 0.00 44 1010.7
20260505072514 63 121 5.0 8.0 0.00 0.00 0.00 46 1010.7
20260505072013 64 134 2.0 7.0 0.00 0.00 0.00 46 1010.6
20260505071549 64 122 3.0 7.0 0.00 0.00 0.00 45 1010.7
20260505071014 65 122 1.0 4.0 0.00 0.00 0.00 44 1010.8
20260505070521 65 122 2.0 4.0 0.00 0.00 0.00 44 1010.8
20260505070045 65 122 3.0 4.0 0.00 0.00 0.00 44 1010.8
20260505065513 65 96 3.0 4.0 0.00 0.00 0.00 44 1010.8
20260505065015 65 96 3.0 6.0 0.00 0.00 0.00 44 1010.7
20260505064541 65 96 2.0 6.0 0.00 0.00 0.00 46 1010.7
20260505064014 64 96 3.0 6.0 0.00 0.00 0.00 46 1010.7
20260505063515 65 96 3.0 6.0 0.00 0.00 0.00 45 1010.7
20260505063035 64 88 3.0 4.0 0.00 0.00 0.00 47 1010.6
20260505062515 64 88 2.0 6.0 0.00 0.00 0.00 48 1010.7
20260505062015 63 74 3.0 7.0 0.00 0.00 0.00 50 1010.6
20260505061537 62 95 2.0 7.0 0.00 0.00 0.00 53 1010.7
20260505061016 61 95 4.0 7.0 0.00 0.00 0.00 56 1010.7
20260505060510 61 82 3.0 5.0 0.00 0.00 0.00 59 1010.7
20260505055854 61 82 0.0 0.0 0.00 0.00 0.00 58 1010.9
20260505055016 61 82 0.0 0.0 0.00 0.00 0.00 58 1010.9
20260505054549 62 82 0.0 2.0 0.00 0.00 0.00 57 1010.7
20260505054013 62 82 0.0 3.0 0.00 0.00 0.00 55 1010.7
20260505053515 62 82 2.0 4.0 0.00 0.00 0.00 56 1010.7
20260505053055 64 82 2.0 4.0 0.00 0.00 0.00 53 1010.8
20260505052518 65 82 0.0 3.0 0.00 0.00 0.00 51 1010.8
20260505052016 65 82 1.0 5.0 0.00 0.00 0.00 50 1010.8
20260505051559 65 82 3.0 5.0 0.00 0.00 0.00 50 1010.8
20260505051013 65 92 2.0 4.0 0.00 0.00 0.00 50 1010.8
20260505050515 65 92 2.0 4.0 0.00 0.00 0.00 51 1010.9
20260505041602 66 286 3.0 4.0 0.00 0.00 0.00 51 1010.9
20260505041016 66 286 2.0 4.0 0.00 0.00 0.00 50 1010.8
20260505040516 67 286 2.0 3.0 0.00 0.00 0.00 50 1010.9
20260505040055 68 286 1.0 2.0 0.00 0.00 0.00 48 1011.1
20260505035518 69 286 0.0 2.0 0.00 0.00 0.00 47 1010.9
20260505035018 69 286 0.0 2.0 0.00 0.00 0.00 47 1011.0
20260505034554 69 286 0.0 1.0 0.00 0.00 0.00 47 1010.9
20260505034015 70 286 0.0 3.0 0.00 0.00 0.00 46 1010.9
20260505033516 70 286 1.0 3.0 0.00 0.00 0.00 45 1010.9
20260505033054 70 286 0.0 4.0 0.00 0.00 0.00 45 1010.9
20260505032926 70 286 1.0 4.0 0.00 0.00 0.00 45 1010.9
20260505032015 71 286 0.0 0.0 0.00 0.00 0.00 43 1011.0
20260505031603 72 286 0.0 0.0 0.00 0.00 0.00 43 1011.0
20260505031016 72 286 0.0 0.0 0.00 0.00 0.00 43 1011.0
20260505030519 73 286 0.0 0.0 0.00 0.00 0.00 42 1011.0
20260505030112 72 286 0.0 0.0 0.00 0.00 0.00 42 1011.0
20260505025522 72 286 0.0 0.0 0.00 0.00 0.00 43 1011.0
20260505025015 72 286 0.0 0.0 0.00 0.00 0.00 44 1011.1
20260505024607 72 286 0.0 0.0 0.00 0.00 0.00 44 1011.0